SCP
0 0 0 0 0 0 0 0 0 0 0 0 0 0 0 1 1 1 1 1 1 1 1 1 1 1 1 1 1 1 1 1 1 1 1 1 0 0 0 0 0 0 0 0
0 0 0 0 0 0 0 0 0 0 0 0 0 0 0 1 1 1 1 1 1 1 1 1 1 1 1 1 1 1 1 1 1 1 1 1 1 1 0 0 0 0 0 0
0 0 0 0 0 0 0 0 0 0 0 0 0 0 0 1 1 1 1 1 1 1 1 1 1 1 1 1 1 2 2 2 2 2 1 1 1 1 1 1 0 0 0 0
0 0 0 0 0 0 0 0 0 0 0 0 0 0 0 1 1 1 1 1 1 1 1 1 1 1 1 1 2 2 2 2 2 2 2 1 1 1 1 1 1 1 0 0
0 0 0 0 0 0 0 0 0 0 0 0 0 0 0 1 1 1 1 1 0 1 1 1 1 1 1 1 2 1 2 2 3 3 2 2 2 1 1 1 1 1 0 0
0 0 0 0 0 0 0 0 0 0 0 0 0 0 1 1 1 1 1 0 0 1 1 1 1 1 1 2 2 2 2 3 4 3 3 3 2 1 1 1 1 1 0 0
0 0 0 0 0 0 0 0 0 0 0 0 0 0 1 1 1 1 1 0 0 1 1 1 2 2 2 2 2 2 3 4 4 4 5 4 3 2 1 1 1 1 1 1
0 0 0 0 0 0 0 0 0 0 0 0 0 0 0 1 1 1 1 0 0 1 1 1 2 2 2 2 2 3 4 5 6 6 6 6 4 3 2 1 1 1 1 1
0 0 0 0 0 0 0 0 0 0 0 0 0 0 0 1 1 1 1 0 0 1 1 1 2 2 3 3 3 3 4 5 6 6 7 6 5 4 3 2 2 1 1 1
0 0 0 0 0 0 0 0 0 0 0 0 0 0 0 0 0 0 1 1 0 1 1 1 2 2 3 3 3 4 4 4 4 4 5 5 5 5 5 4 3 1 1 1
0 0 0 0 0 0 0 0 0 0 0 0 0 0 0 0 0 0 1 1 1 1 1 1 2 2 2 3 3 3 3 3 3 2 3 3 4 5 6 5 4 2 1 1
0 0 0 0 0 0 0 0 0 0 0 0 0 0 0 0 0 0 1 1 1 1 1 2 2 2 3 3 2 2 2 3 2 2 2 2 2 3 4 4 4 3 2 1
0 0 0 0 0 0 0 0 0 0 1 1 0 0 0 0 0 1 1 1 1 1 2 2 3 3 2 2 2 2 2 2 2 2 2 2 2 2 2 3 3 3 2 2
0 0 0 0 0 0 0 0 0 0 1 1 0 0 0 0 0 1 1 2 2 2 2 2 2 2 2 2 2 2 2 2 2 2 2 2 2 2 3 3 3 3 2 2
0 0 0 0 0 0 0 0 0 0 1 1 0 0 0 0 0 1 1 2 2 2 2 2 1 1 1 1 1 1 2 2 3 3 3 3 3 3 3 3 3 3 2 2
0 0 0 0 0 0 0 0 0 0 0 0 0 0 0 0 0 1 1 2 2 2 2 1 1 1 1 1 1 1 2 2 2 3 3 4 3 3 2 2 2 2 2 2
0 0 0 0 0 0 0 0 0 0 0 0 0 0 1 0 0 1 2 3 3 2 2 2 1 1 1 1 1 1 1 2 2 2 3 4 4 3 2 1 1 1 1 1
0 0 0 0 0 0 0 0 0 0 0 0 0 1 1 1 0 1 2 3 3 2 2 2 2 1 1 0 1 1 1 1 1 2 3 4 4 3 2 1 1 1 1 1
0 0 0 0 0 0 0 0 0 0 0 0 1 1 1 1 0 0 1 3 4 3 3 2 1 1 0 0 0 1 1 1 1 2 3 4 4 3 2 1 1 2 2 2
0 0 0 0 0 0 0 0 0 0 0 0 1 1 1 0 0 0 1 2 5 4 3 2 1 1 0 0 0 0 1 1 1 2 3 4 4 3 2 2 2 2 2 2
0 0 0 0 0 0 0 0 0 0 0 0 0 0 0 0 0 0 1 3 5 4 2 1 1 1 1 0 0 0 1 1 1 1 3 4 4 3 2 2 2 3 2 2
0 0 0 0 0 0 0 0 0 0 0 0 0 0 0 0 0 0 1 2 3 3 2 1 1 1 1 0 0 0 0 1 1 1 2 3 3 2 2 3 3 2 2 2
0 0 0 0 0 0 0 0 0 0 0 0 0 0 0 0 0 0 1 1 1 2 1 1 1 1 1 0 0 0 0 0 1 1 1 2 2 2 2 2 2 2 2 1
0 0 0 0 0 0 0 0 0 0 0 0 0 0 0 0 0 0 0 1 1 1 2 1 1 1 0 0 0 0 0 0 0 0 1 1 1 2 2 2 2 2 2 2
0 0 0 0 0 0 0 0 0 0 0 0 0 0 0 0 0 0 1 1 1 1 1 1 0 0 0 0 0 0 0 0 0 0 0 1 1 1 1 2 2 2 2 2
0 0 0 0 0 0 0 0 0 0 0 0 0 0 0 0 0 0 1 1 1 1 1 1 0 0 0 0 0 0 0 0 0 0 0 0 1 1 1 2 2 2 2 2
Wind_Speed
8 7 7 7 7 6 6 5 5 3 4 5 6 6 6 7 7 6 6 6 6 6 6 7 7 6 5 5 5 6 6 4 4 3 2 3 2 2 2 2 3 3 2 3
8 8 7 6 6 7 7 6 6 3 3 4 5 7 6 8 7 6 5 6 6 6 6 6 7 6 5 5 5 5 6 5 5 3 3 3 3 2 2 2 2 2 2 2
8 5 5 6 6 7 8 6 5 4 5 6 7 7 8 8 7 6 5 5 6 6 7 6 6 6 5 5 5 5 6 6 6 5 2 2 2 2 2 2 1 2 2 2
7 6 5 6 6 7 7 5 5 6 6 5 5 5 5 7 8 8 6 5 5 6 6 5 5 5 5 5 4 4 5 5 5 5 3 4 3 2 2 2 2 2 2 2
6 5 6 6 6 6 6 5 7 8 8 9 8 7 4 6 7 8 7 6 5 6 7 6 5 4 4 4 4 3 4 4 4 5 4 4 3 2 2 2 3 2 2 2
7 5 5 5 5 5 6 7 9 8 6 9 9 8 3 3 5 7 7 7 6 6 6 6 6 5 4 4 4 3 4 4 4 4 5 4 4 4 3 3 3 2 2 2
9 8 6 4 6 6 7 6 4 5 6 7 7 6 3 3 4 5 6 7 6 6 6 5 6 5 5 5 5 4 4 4 5 4 5 4 4 4 4 3 3 2 2 2
8 8 7 5 6 4 7 8 5 4 4 4 4 2 2 6 6 6 6 6 6 6 5 5 5 4 4 5 5 4 4 4 4 4 4 4 4 3 2 3 2 2 2 2
6 3 4 4 5 6 6 7 7 7 9 7 4 2 3 6 7 6 6 5 5 5 5 5 5 5 4 4 4 5 4 4 3 4 3 3 4 3 2 2 2 1 1 1
7 6 4 4 5 7 7 6 5 5 5 6 4 3 1 5 6 6 5 4 4 5 5 5 4 4 4 4 3 3 3 3 3 3 3 3 3 3 3 2 2 2 2 1
7 8 5 5 6 6 7 7 5 5 6 5 3 0 2 3 4 5 4 4 4 5 4 4 3 3 4 4 4 3 3 2 2 2 2 2 2 3 3 2 2 2 2 2
4 6 8 7 5 5 6 6 5 4 6 6 5 1 2 3 4 4 4 4 4 4 4 4 4 3 3 4 4 4 3 3 2 2 2 2 2 2 2 2 2 2 2 2
5 6 7 4 3 4 5 5 6 6 6 6 6 2 2 3 3 3 3 3 4 4 4 3 3 3 3 3 4 4 3 3 3 2 1 2 2 2 2 2 2 2 1 1
4 7 8 7 5 4 6 7 7 7 6 7 6 5 2 1 1 2 2 2 2 3 3 3 2 2 2 2 3 3 3 3 3 3 2 2 1 1 1 2 1 2 2 1
4 8 10 10 9 7 7 9 9 9 9 9 7 6 5 3 1 1 1 1 2 2 2 2 2 1 1 1 1 2 3 3 3 3 2 2 2 1 1 1 1 1 1 1
6 8 10 11 11 9 10 10 11 11 10 10 9 6 4 3 2 2 1 1 1 1 1 2 2 2 1 1 1 1 2 3 3 3 2 2 2 2 1 1 1 1 1 1
7 8 9 10 10 10 10 9 10 9 8 7 7 5 3 2 2 2 1 1 0 1 2 1 1 1 1 1 1 1 1 3 3 3 3 2 2 2 1 1 1 1 1 1
9 9 6 7 8 11 3 2 4 5 3 4 3 4 4 4 2 1 2 3 3 2 1 1 1 1 1 1 1 1 0 1 2 3 3 2 2 3 2 1 2 2 1 1
7 8 6 6 8 8 4 4 5 4 3 4 4 4 5 4 2 2 4 4 3 3 3 1 0 1 1 1 1 1 1 2 2 2 3 3 2 2 3 2 2 2 1 1
5 6 7 7 7 7 4 5 5 4 2 5 5 5 5 4 2 2 3 3 4 3 3 2 1 1 0 0 0 1 1 2 3 3 2 2 2 3 3 3 2 2 2 2
3 5 7 8 8 4 3 4 3 2 2 6 6 6 5 3 3 2 3 3 2 3 3 2 2 1 1 1 1 1 1 1 1 1 1 2 2 3 3 3 2 2 2 2
4 4 5 6 7 3 4 3 3 4 4 5 6 5 5 5 5 4 4 3 3 3 2 2 2 2 2 2 2 1 2 1 1 1 1 2 2 2 2 2 2 2 2 2
3 3 2 2 1 2 4 4 5 5 5 6 6 6 5 5 4 4 4 4 3 3 3 2 2 2 2 2 2 1 2 2 1 0 1 2 2 2 2 2 2 2 2 2
2 3 3 4 3 3 3 4 5 5 5 6 6 6 5 5 4 4 3 3 3 3 3 2 2 1 2 2 2 2 2 2 1 1 2 1 1 1 2 2 2 2 2 2
5 4 4 6 4 4 3 4 5 6 5 5 6 5 5 4 4 3 3 3 3 3 3 3 3 2 3 3 2 2 2 2 2 2 1 1 1 2 2 1 2 3 3 4
6 5 5 4 4 4 4 4 5 6 6 5 5 5 5 5 4 4 3 3 3 4 4 3 3 3 4 4 3 3 2 2 2 2 1 1 1 1 1 1 1 3 4 5
Wind_Direction
216 227 234 241 246 262 277 272 272 251 206 230 242 242 213 191 195 198 182 180 180 182 163 157 162 162 159 159 160 153 154 151 132 126 126 123 120 119 113 108 101 96 90 81
221 229 243 253 255 260 268 270 274 271 227 247 255 253 232 198 194 190 190 183 172 171 163 162 163 157 158 166 174 161 156 150 142 139 143 138 133 134 121 101 105 117 117 112
229 233 238 246 253 259 260 267 276 287 292 267 268 263 240 200 188 182 192 187 168 168 164 158 159 157 157 168 181 175 160 153 146 144 133 126 110 103 104 113 112 112 103 98
243 244 246 248 249 261 265 268 276 270 266 261 243 270 244 195 185 180 182 181 158 147 141 146 146 145 162 171 176 169 156 152 146 146 141 137 136 144 151 139 136 134 123 118
245 249 251 253 255 259 270 285 272 264 264 269 247 250 244 185 190 180 172 166 152 147 148 147 138 143 159 162 160 160 152 147 140 145 151 151 150 156 144 137 145 148 144 140
250 255 264 267 261 255 268 269 263 252 254 256 241 236 240 193 174 163 160 154 144 140 141 142 139 142 147 138 137 143 147 137 137 155 158 161 164 164 156 156 163 171 159 153
232 229 227 246 256 230 243 258 259 233 222 242 232 225 194 150 129 130 139 140 135 129 131 132 139 148 142 142 146 146 144 150 156 164 165 171 176 165 158 162 171 175 169 165
241 224 205 218 246 260 248 247 251 271 270 287 269 232 129 120 108 104 109 117 125 133 134 134 133 132 141 146 147 153 157 155 160 170 181 178 164 155 156 163 166 174 170 169
285 247 186 212 239 253 259 250 252 267 278 273 235 185 135 117 112 113 115 114 121 128 128 134 135 136 140 137 150 154 153 153 166 175 182 173 163 157 163 174 153 149 144 151
285 277 230 203 230 230 250 279 279 256 268 264 247 233 184 156 136 127 126 126 124 123 125 124 130 132 137 135 134 146 150 159 165 174 190 173 161 156 159 161 159 164 161 143
284 276 248 218 227 244 230 242 258 266 262 271 275 323 41 105 117 124 128 126 129 126 122 121 125 137 140 138 141 151 155 153 163 173 185 171 162 164 157 161 164 166 159 165
275 279 267 248 241 246 254 259 258 262 273 276 278 252 104 110 107 108 114 113 111 111 114 122 130 131 141 148 154 160 161 166 165 174 176 167 159 162 161 163 164 166 175 186
318 272 269 251 230 225 245 260 269 276 276 269 268 239 97 82 79 82 82 94 106 111 112 114 122 132 139 151 159 164 173 175 157 147 146 140 148 162 164 162 146 143 150 163
299 269 268 270 288 285 271 270 271 269 264 270 272 277 280 327 72 71 76 92 103 111 119 119 123 134 137 143 162 163 169 160 144 138 140 143 140 145 155 156 148 148 147 153
275 269 277 283 285 284 273 275 272 268 270 268 278 283 298 311 347 49 67 104 119 115 117 127 128 134 146 144 149 151 158 149 147 141 142 140 132 121 108 132 150 136 157 164
266 272 277 275 274 278 275 268 266 263 268 271 276 278 292 304 334 2 11 18 126 133 150 129 141 160 151 143 172 160 169 156 151 154 160 145 133 112 100 161 184 174 179 168
263 269 276 271 268 274 265 259 259 259 264 273 281 303 339 345 349 353 348 343 355 147 133 122 157 197 184 185 185 203 203 178 172 172 169 161 158 147 170 198 190 191 189 185
272 275 271 271 271 258 265 335 303 282 295 324 334 358 359 355 357 8 41 16 10 20 50 135 201 220 215 196 172 162 271 194 172 176 171 168 170 168 170 198 196 201 205 190
257 263 266 266 264 263 271 324 321 303 303 344 345 355 359 354 3 30 36 22 11 7 353 336 257 241 232 206 202 187 204 207 188 187 176 171 176 181 185 196 212 205 196 200
257 258 258 260 263 268 322 344 326 288 272 19 15 2 355 351 323 328 5 12 2 353 341 344 2 340 296 304 245 224 217 208 193 189 186 178 180 189 194 197 209 210 200 202
246 249 250 261 263 274 344 348 345 306 360 8 10 5 353 346 352 332 340 357 355 350 347 349 355 357 1 10 10 317 295 284 189 153 165 189 193 196 194 197 205 196 191 190
267 267 256 260 258 268 24 8 1 5 5 1 4 9 5 1 7 4 2 8 5 1 353 358 14 10 9 23 35 13 343 353 15 116 163 218 204 203 197 185 199 190 180 190
265 290 300 300 313 43 16 17 5 0 351 357 -0 358 358 355 351 356 357 359 360 355 351 6 18 4 356 6 16 344 333 351 350 237 209 219 220 210 193 183 193 198 188 189
286 318 298 293 289 327 341 359 358 356 355 356 353 349 347 341 341 348 349 349 347 345 346 349 356 339 335 342 339 315 320 319 297 257 229 219 220 224 207 191 190 193 193 192
305 302 283 278 291 300 331 359 359 353 351 351 349 347 346 343 338 341 344 349 349 345 345 348 346 341 333 331 333 328 333 330 307 280 246 226 237 233 225 207 198 195 198 190
286 288 281 285 309 309 321 346 351 340 342 350 349 348 350 345 336 341 348 352 352 350 349 341 339 340 336 335 337 337 337 321 300 280 261 231 222 228 218 211 235 220 209 196